KB6LA Weather Reports


Display with metric or nautical units.
time (UTC)temp
F
wind
direction
speed
MPH
gust
MPH
rain 1hr
in
rain 24hr
in
rain mn
in
humidity
%
barometer
mb
20260503184354 63 216 4.0 11.0 0.00 0.00 0.00 63 1013.4
20260503183847 64 243 4.0 10.0 0.00 0.00 0.00 62 1013.4
20260503183340 64 204 3.0 8.0 0.00 0.00 0.00 61 1013.4
20260503182833 63 181 5.0 8.0 0.00 0.00 0.00 63 1013.4
20260503182325 63 267 0.0 9.0 0.00 0.00 0.00 65 1013.4
20260503181818 63 264 3.0 9.0 0.00 0.00 0.00 63 1013.4
20260503181310 62 263 1.0 9.0 0.00 0.00 0.00 66 1013.4
20260503180803 62 249 5.0 9.0 0.00 0.00 0.00 66 1013.4
20260503180256 62 311 4.0 8.0 0.00 0.00 0.00 67 1013.4
20260503175241 61 292 4.0 10.0 0.00 0.00 0.00 69 1013.8
20260503174734 61 241 7.0 10.0 0.00 0.00 0.00 70 1013.8
20260503174226 61 250 7.0 10.0 0.00 0.00 0.00 70 1013.8
20260503173719 61 226 6.0 10.0 0.00 0.00 0.00 71 1013.8
20260503172705 60 219 7.0 10.0 0.00 0.00 0.00 73 1013.8
20260503172158 60 253 8.0 10.0 0.00 0.00 0.00 73 1013.8
20260503170636 60 240 5.0 9.0 0.00 0.00 0.00 74 1013.4
20260503170129 60 261 6.0 9.0 0.00 0.00 0.00 74 1013.4
20260503150849 59 226 4.0 7.0 0.00 0.00 0.00 78 1012.8
20260503150341 59 275 2.0 7.0 0.00 0.00 0.00 79 1012.8
20260503140214 58 232 1.0 2.0 0.00 0.00 0.00 83 1011.8
20260503131101 58 323 0.0 2.0 0.00 0.00 0.00 86 1011.4
20260503130554 58 307 1.0 3.0 0.00 0.00 0.00 86 1011.8
20260503110807 59 267 0.0 1.0 0.00 0.00 0.00 80 1011.8
20260503110300 59 267 0.0 2.0 0.00 0.00 0.00 80 1011.8
20260503100133 59 279 0.0 3.0 0.00 0.00 0.00 83 1011.8
20260503081400 59 224 2.0 4.0 0.00 0.00 0.00 85 1012.4
20260503080853 58 239 3.0 4.0 0.00 0.00 0.00 86 1012.1
20260503072756 58 229 5.0 7.0 0.00 0.00 0.00 89 1012.1
20260503072248 58 239 4.0 6.0 0.00 0.00 0.00 90 1012.1
20260503071741 58 187 4.0 6.0 0.00 0.00 0.00 90 1012.1
20260503071234 58 213 3.0 6.0 0.00 0.00 0.00 90 1011.8
20260503070726 58 217 3.0 4.0 0.00 0.00 0.00 90 1011.8
20260503070219 58 202 2.0 6.0 0.00 0.00 0.00 90 1011.8
20260503055037 58 241 5.0 7.0 0.00 0.00 0.00 89 1011.8
20260503054530 58 200 2.0 8.0 0.00 0.00 0.00 89 1011.8
20260503054022 58 226 4.0 8.0 0.00 0.00 0.00 89 1011.8
20260503053515 59 256 2.0 8.0 0.00 0.00 0.00 89 1012.1
20260503053009 59 249 3.0 9.0 0.00 0.00 0.00 89 1012.1
20260503052501 59 205 5.0 9.0 0.00 0.00 0.00 90 1012.1
20260503051954 58 234 4.0 9.0 0.00 0.00 0.00 90 1012.1
20260503050939 59 209 4.0 7.0 0.00 0.00 0.00 90 1012.1
20260503050431 59 227 4.0 7.0 0.00 0.00 0.00 90 1012.1
20260503045417 59 245 4.0 9.0 0.00 0.00 0.00 91 1011.8
20260503044911 59 226 3.0 9.0 0.00 0.00 0.00 91 1011.8
20260503043855 59 214 5.0 8.0 0.00 0.00 0.00 90 1011.8
20260503043348 59 180 3.0 7.0 0.00 0.00 0.00 90 1011.8
20260503042841 59 220 5.0 8.0 0.00 0.00 0.00 91 1011.8
20260503042334 59 212 4.0 8.0 0.00 0.00 0.00 90 1011.4
20260503041826 59 195 3.0 6.0 0.00 0.00 0.00 90 1011.4
20260503041320 59 197 2.0 8.0 0.00 0.00 0.00 91 1011.4
20260503040812 59 198 4.0 8.0 0.00 0.00 0.00 90 1011.1
20260503040304 59 253 1.0 8.0 0.00 0.00 0.00 90 1011.1
20260503035758 59 256 3.0 8.0 0.00 0.00 0.00 90 1011.1
20260503034743 59 246 1.0 8.0 0.00 0.00 0.00 90 1011.1
20260503034236 59 273 4.0 8.0 0.00 0.00 0.00 90 1010.7
20260503033221 59 229 2.0 6.0 0.00 0.00 0.00 90 1010.7
20260503032714 59 223 2.0 7.0 0.00 0.00 0.00 90 1010.7
20260503032207 59 208 5.0 7.0 0.00 0.00 0.00 90 1010.4
20260503031659 59 259 1.0 9.0 0.00 0.00 0.00 90 1010.4
20260503031152 59 233 5.0 9.0 0.00 0.00 0.00 89 1010.4
20260503030644 59 268 2.0 7.0 0.00 0.00 0.00 89 1010.4
20260503030137 59 286 2.0 7.0 0.00 0.00 0.00 89 1010.1
20260503025631 59 266 2.0 7.0 0.00 0.00 0.00 89 1010.1
20260503024109 59 316 6.0 8.0 0.00 0.00 0.00 88 1010.1
20260503023601 59 248 5.0 9.0 0.00 0.00 0.00 88 1010.1
20260503022546 59 225 4.0 9.0 0.00 0.00 0.00 88 1010.1
20260503021532 60 261 5.0 9.0 0.00 0.00 0.00 87 1009.7
20260503021025 60 271 4.0 8.0 0.00 0.00 0.00 87 1009.7
20260503020517 60 208 5.0 8.0 0.00 0.00 0.00 86 1010.1
20260503020010 60 235 4.0 8.0 0.00 0.00 0.00 86 1009.7
20260503015503 60 273 4.0 8.0 0.00 0.00 0.00 86 1009.7
20260503014956 60 241 5.0 10.0 0.00 0.00 0.00 86 1009.7
20260503013941 60 276 5.0 9.0 0.00 0.00 0.00 85 1009.7
20260503012926 60 264 6.0 13.0 0.00 0.00 0.00 85 1009.7
20260503012419 61 232 7.0 13.0 0.00 0.00 0.00 84 1009.7
20260503011912 62 239 6.0 10.0 0.00 0.00 0.00 82 1009.7
20260503011405 62 243 5.0 10.0 0.00 0.00 0.00 81 1009.7
20260503010858 62 151 3.0 10.0 0.00 0.00 0.00 81 1009.7
20260503010350 62 217 4.0 11.0 0.00 0.00 0.00 82 1009.7
20260503005842 61 254 6.0 11.0 0.00 0.00 0.00 82 1009.7
20260503005335 61 250 6.0 10.0 0.00 0.00 0.00 82 1009.4
20260503004828 61 231 7.0 10.0 0.00 0.00 0.00 82 1009.7
20260503004321 61 227 6.0 13.0 0.00 0.00 0.00 82 1009.7
20260503003306 62 279 6.0 13.0 0.00 0.00 0.00 81 1009.7
20260503002252 62 246 7.0 13.0 0.00 0.00 0.00 80 1009.7
20260503001745 63 240 9.0 14.0 0.00 0.00 0.00 80 1010.1
20260503001237 62 224 7.0 14.0 0.00 0.00 0.00 80 1009.7
20260503000730 63 221 6.0 11.0 0.00 0.00 0.00 78 1009.7
20260503000222 63 237 5.0 11.0 0.00 0.00 0.00 79 1009.7
20260502234701 63 233 8.0 14.0 0.00 0.00 0.00 78 1009.7
20260502234154 63 224 9.0 14.0 0.00 0.00 0.00 79 1009.7
20260502233646 63 231 6.0 11.0 0.00 0.00 0.00 79 1010.1
20260502233139 63 237 7.0 14.0 0.00 0.00 0.00 79 1010.1
20260502232124 64 210 9.0 13.0 0.00 0.00 0.00 78 1010.1
20260502231617 63 229 5.0 14.0 0.00 0.00 0.00 78 1009.7
20260502231110 63 244 8.0 14.0 0.00 0.00 0.00 79 1009.7
20260502230602 63 246 4.0 15.0 0.00 0.00 0.00 80 1010.1
20260502230055 62 262 5.0 18.0 0.00 0.00 0.00 83 1010.1
20260502225548 62 214 14.0 18.0 0.00 0.00 0.00 81 1010.4
20260502225041 62 221 11.0 14.0 0.00 0.00 0.00 81 1010.4
20260502224026 62 232 11.0 16.0 0.00 0.00 0.00 81 1010.7
20260502223519 62 258 5.0 16.0 0.00 0.00 0.00 82 1010.7
20260502222504 62 249 8.0 15.0 0.00 0.00 0.00 82 1011.1
20260502221956 62 225 10.0 14.0 0.00 0.00 0.00 81 1011.4
20260502221449 62 227 6.0 14.0 0.00 0.00 0.00 81 1011.1
20260502220942 62 278 10.0 14.0 0.00 0.00 0.00 81 1011.4
20260502220435 62 247 11.0 14.0 0.00 0.00 0.00 81 1011.4
20260502215421 62 229 13.0 15.0 0.00 0.00 0.00 80 1011.8
20260502214913 63 218 6.0 14.0 0.00 0.00 0.00 81 1011.8
20260502214406 62 222 7.0 15.0 0.00 0.00 0.00 81 1011.8
20260502213858 62 214 10.0 15.0 0.00 0.00 0.00 81 1011.8
20260502213351 63 227 11.0 15.0 0.00 0.00 0.00 80 1012.1
20260502212843 62 218 11.0 14.0 0.00 0.00 0.00 81 1012.1
20260502212336 63 255 6.0 16.0 0.00 0.00 0.00 80 1012.1
20260502211829 63 225 7.0 16.0 0.00 0.00 0.00 80 1012.1
20260502211322 62 274 7.0 14.0 0.00 0.00 0.00 80 1012.1
20260502210815 63 237 6.0 14.0 0.00 0.00 0.00 80 1012.1
20260502205800 63 274 7.0 15.0 0.00 0.00 0.00 79 1012.4
20260502205253 64 263 9.0 14.0 0.00 0.00 0.00 77 1012.4
20260502204746 64 218 7.0 16.0 0.00 0.00 0.00 76 1012.4
20260502204239 65 239 10.0 16.0 0.00 0.00 0.00 76 1012.4
20260502203224 65 241 9.0 11.0 0.00 0.00 0.00 76 1012.4
20260502202209 66 226 9.0 10.0 0.00 0.00 0.00 74 1012.4
20260502201702 65 243 6.0 10.0 0.00 0.00 0.00 75 1012.4
20260502201155 65 227 5.0 10.0 0.00 0.00 0.00 76 1012.4
20260502200648 65 304 5.0 10.0 0.00 0.00 0.00 76 1012.4
20260502200141 64 289 1.0 10.0 0.00 0.00 0.00 78 1012.4
20260502195633 64 235 7.0 10.0 0.00 0.00 0.00 79 1012.4
20260502195126 64 247 9.0 13.0 0.00 0.00 0.00 77 1012.4
20260502194618 64 237 9.0 13.0 0.00 0.00 0.00 77 1012.8
20260502194111 64 237 6.0 9.0 0.00 0.00 0.00 79 1012.8
20260502193604 63 212 7.0 10.0 0.00 0.00 0.00 79 1012.8
20260502193057 64 263 7.0 10.0 0.00 0.00 0.00 79 1013.1
20260502192550 64 282 7.0 10.0 0.00 0.00 0.00 79 1012.8
20260502192041 64 252 4.0 10.0 0.00 0.00 0.00 79 1013.1
20260502191534 64 242 6.0 9.0 0.00 0.00 0.00 79 1013.1
20260502191027 64 279 6.0 9.0 0.00 0.00 0.00 79 1013.1
20260502190520 64 245 5.0 13.0 0.00 0.00 0.00 79 1013.1
20260502190012 63 260 4.0 13.0 0.00 0.00 0.00 80 1013.4
20260502185505 63 254 8.0 11.0 0.00 0.00 0.00 79 1013.4